Wind_Speed
26 25 25 25 26 26 27 29 29 29 30 30 30 30 31 32 33 34 34 34 35 37 38 39 40 41 40 40 40 40 40 39 38 39 38 38 39 39 40 39 39 39 38 38
25 26 25 25 25 26 26 28 28 29 29 30 30 30 30 30 31 32 33 34 35 35 36 37 39 40 40 40 40 40 41 40 39 39 39 39 39 40 40 41 40 40 39 39
25 25 25 25 25 26 26 27 27 28 29 30 31 30 29 29 31 31 32 33 34 36 37 37 38 39 41 41 41 41 41 40 39 39 39 39 39 40 41 41 41 41 40 40
24 23 24 24 24 25 25 25 27 28 29 29 29 30 27 28 29 30 31 33 34 36 37 37 38 39 40 40 41 41 41 40 40 39 39 39 40 40 40 41 42 42 41 41
25 24 23 24 24 25 24 25 25 27 28 29 28 30 28 28 28 29 31 32 33 36 37 38 38 39 40 40 41 42 42 42 41 40 39 39 39 40 41 41 42 42 42 42
25 24 24 23 24 24 24 24 24 26 27 28 27 29 29 28 28 29 30 31 33 35 36 37 38 39 40 41 41 42 42 42 43 42 41 41 41 41 41 41 42 43 43 43
24 23 23 22 22 22 22 22 22 24 26 27 26 27 28 27 28 28 29 30 30 31 34 36 38 39 40 41 42 43 43 43 44 44 43 43 43 43 43 42 43 44 44 44
22 21 21 21 21 21 20 21 22 23 25 25 25 27 27 27 27 27 28 29 30 30 32 34 36 38 40 42 42 43 44 45 44 45 45 44 44 45 44 43 43 44 44 45
21 22 21 20 20 21 20 20 20 22 24 25 25 26 26 26 27 28 28 29 30 30 30 32 35 37 39 41 42 43 43 44 44 45 45 45 45 45 44 45 45 46 46 46
22 23 22 21 21 20 20 20 20 21 22 24 24 25 25 25 26 26 27 28 28 30 31 32 33 34 36 38 41 42 43 43 44 44 44 45 45 46 46 47 47 47 47 47
22 22 22 22 21 20 20 20 21 22 23 23 24 23 22 22 24 25 27 28 29 30 31 32 32 34 35 37 39 41 42 43 44 44 45 45 46 47 48 49 48 48 48 49
21 22 22 21 21 21 21 21 21 22 22 23 25 23 21 22 22 24 25 26 28 29 29 30 31 32 33 35 36 38 40 41 42 43 44 46 46 47 48 49 48 48 49 50
22 23 22 22 21 22 22 22 23 23 23 23 24 23 22 23 23 24 25 26 26 27 28 29 29 31 32 33 35 36 37 38 40 42 43 45 47 48 49 50 49 48 48 49
23 24 24 24 23 22 22 23 23 24 24 24 23 23 23 23 23 23 25 26 27 27 28 29 29 30 31 32 34 35 36 37 38 40 42 44 46 48 49 49 48 48 47 47
24 24 24 25 24 24 24 23 23 24 24 24 23 23 22 23 23 24 25 26 26 27 28 29 29 30 30 32 33 35 36 37 38 39 40 42 44 46 46 46 47 47 46 46
26 26 25 25 24 24 24 23 24 24 24 24 24 23 22 23 24 24 25 26 26 27 28 28 29 28 29 30 31 32 33 35 36 37 39 41 43 44 45 45 45 46 45 46
26 26 26 26 25 26 25 23 24 25 25 24 24 23 22 23 24 24 25 25 26 27 27 27 27 28 29 30 30 31 33 34 35 36 37 39 40 41 42 43 43 44 44 44
24 25 25 26 26 27 25 24 24 25 24 24 24 24 23 23 24 24 25 24 25 26 27 27 28 29 30 31 32 32 33 35 35 35 37 38 38 38 40 40 41 42 42 42
23 24 24 25 25 25 24 24 24 24 24 24 24 23 23 23 24 24 24 25 25 26 27 27 28 28 29 30 31 31 33 34 35 36 36 37 37 38 38 38 39 40 41 42
23 23 24 24 23 23 22 23 23 24 24 23 23 23 23 24 24 24 24 25 26 26 27 27 27 28 29 30 31 32 33 33 34 35 34 36 36 37 37 37 38 40 41 42
22 23 24 24 24 23 21 21 22 24 24 23 24 24 24 24 25 25 25 26 27 27 28 28 28 29 30 30 31 33 33 34 34 35 34 34 35 35 35 36 37 38 39 40
21 23 23 23 24 22 21 22 23 23 24 24 25 25 26 26 26 26 26 27 27 28 29 29 28 29 29 30 31 33 33 34 35 34 34 33 33 33 33 34 34 35 35 36
21 22 22 22 22 21 22 23 23 24 24 24 25 25 26 26 27 27 27 27 28 29 29 30 29 28 29 29 30 32 33 33 33 32 31 31 31 32 33 32 32 32 33 33
21 21 22 22 21 22 22 23 24 25 25 26 26 27 27 27 27 27 28 28 29 30 30 30 30 29 29 29 30 30 30 30 30 30 30 31 31 31 31 31 31 31 32 32
20 21 22 22 22 22 22 23 24 25 26 27 26 26 27 27 28 28 28 29 29 30 30 30 30 29 29 28 28 29 29 29 29 29 30 31 31 32 32 32 31 30 29 29
20 20 22 22 22 23 23 23 24 24 25 26 26 27 27 28 28 28 29 29 29 29 28 28 28 28 28 27 27 28 28 28 29 29 30 31 31 30 30 30 30 30 29 29
Wind_Direction
272 271 269 269 268 266 265 263 261 261 262 262 262 261 258 256 255 255 252 250 247 245 244 243 244 245 246 246 246 247 248 249 250 252 254 255 256 257 257 258 259 261 262 263
272 272 271 270 267 265 266 265 263 262 262 262 262 262 259 256 255 253 252 250 248 246 244 245 244 245 246 247 247 248 249 250 251 252 254 256 257 258 259 259 259 260 261 263
274 274 272 270 268 265 265 266 265 263 261 262 262 260 258 257 256 253 252 250 248 247 246 246 245 244 245 246 247 248 248 250 251 252 254 255 256 258 259 259 259 260 262 263
275 274 274 270 267 266 266 266 266 264 261 261 262 262 259 258 257 254 252 250 250 249 248 247 248 247 245 245 246 247 248 250 251 253 255 255 257 258 259 260 260 261 263 264
274 272 272 271 268 267 267 265 264 263 262 263 263 265 262 260 257 256 255 252 251 250 249 248 248 247 245 245 246 247 249 251 252 253 255 255 257 257 258 261 262 262 263 264
274 273 271 272 270 268 269 267 266 265 264 264 263 266 265 262 260 260 258 257 255 253 252 250 249 249 246 245 247 248 250 251 252 253 255 255 257 258 260 261 263 264 265 265
275 273 271 271 270 267 266 266 266 266 265 266 266 266 267 265 264 263 261 260 257 256 254 252 251 252 249 248 248 249 250 252 253 254 255 256 257 259 261 262 264 266 266 267
276 274 270 268 267 265 263 264 268 270 270 271 269 267 268 267 267 264 261 260 259 259 257 255 255 254 252 250 250 251 251 253 253 254 255 257 257 259 261 263 265 267 268 268
276 275 270 266 265 265 263 263 268 271 272 273 269 268 268 267 266 264 263 260 259 259 260 260 258 258 256 253 252 253 253 253 253 254 255 258 258 260 262 264 266 267 268 269
275 274 270 265 264 264 263 264 268 270 271 271 271 270 272 269 266 266 264 262 262 262 263 263 262 262 260 257 254 253 254 254 253 253 255 258 260 262 264 266 266 267 268 270
272 271 269 267 265 265 263 263 267 268 268 270 272 272 276 273 269 266 265 264 266 266 265 266 265 265 262 260 257 255 254 254 253 254 256 259 260 263 266 267 267 268 269 271
271 272 271 269 267 265 263 263 266 268 268 269 271 274 276 274 273 270 267 267 268 268 268 268 267 266 264 262 259 258 257 256 256 256 257 259 260 263 265 266 268 269 270 271
270 270 271 270 269 267 265 265 267 268 268 268 271 274 276 276 276 273 270 270 270 271 269 269 269 268 266 264 261 260 259 259 260 259 260 261 263 264 265 267 269 270 271 271
270 268 268 271 272 271 268 266 266 268 268 269 273 275 274 273 274 273 272 272 272 272 272 272 273 272 269 267 264 263 263 264 264 265 264 265 266 266 268 269 270 271 272 272
268 268 268 269 269 267 267 266 265 266 270 272 274 274 273 272 274 273 273 274 275 274 274 276 277 274 271 270 266 266 266 268 268 268 267 268 268 268 269 270 271 271 271 271
268 269 268 266 266 266 266 265 265 267 269 272 273 275 275 274 275 276 277 276 276 277 278 278 276 274 273 273 270 269 269 270 271 271 271 270 270 270 271 271 271 271 270 270
269 270 269 267 265 265 265 267 268 269 270 271 273 276 274 274 276 278 280 281 279 278 280 280 276 274 274 273 274 272 271 274 274 274 273 273 273 273 272 272 271 271 272 271
271 271 270 269 265 264 267 268 268 269 269 270 272 273 275 276 277 280 284 285 281 279 280 280 276 274 274 276 276 276 275 275 276 275 274 274 274 274 274 274 274 273 273 271
269 269 270 269 268 267 266 267 268 269 268 269 271 272 275 278 280 282 286 287 286 285 283 281 276 275 275 276 275 278 278 277 277 278 278 276 276 276 276 276 275 274 272 272
267 266 267 269 270 271 270 268 269 270 269 268 269 272 276 278 280 284 286 287 287 287 286 284 279 276 277 276 274 277 279 278 279 280 280 280 278 277 276 275 275 274 273 273
266 266 266 268 267 269 271 270 271 271 271 271 272 273 275 278 280 282 284 287 288 288 287 286 284 281 280 278 276 277 280 282 282 283 284 282 282 281 280 278 276 276 275 274
267 268 268 268 268 271 271 270 271 273 273 273 273 274 275 277 279 281 283 285 287 288 289 288 287 285 283 281 279 279 280 282 282 284 285 284 284 284 283 281 280 277 276 275
267 268 267 268 270 272 271 270 271 272 273 274 275 275 276 278 280 281 283 285 287 288 288 288 287 286 285 284 283 282 282 282 283 284 285 284 285 286 285 284 282 280 279 277
270 268 267 267 269 270 271 271 273 275 276 277 278 278 278 279 281 282 283 286 287 289 289 288 287 287 286 285 286 285 285 284 284 285 286 286 287 289 288 287 287 285 283 281
272 270 268 269 270 271 273 274 276 277 278 279 279 280 279 280 282 282 284 286 288 289 290 289 287 287 287 285 286 286 285 285 285 286 286 287 288 290 289 288 288 286 284 281
273 273 272 272 274 275 275 276 277 278 279 280 281 281 281 282 283 283 285 287 288 290 291 291 290 288 288 286 285 285 285 285 285 285 286 286 288 289 289 288 288 287 285 282
Height
5700 5701 5700 5700 5699 5699 5699 5699 5700 5700 5700 5701 5701 5702 5704 5705 5707 5709 5711 5713 5716 5720 5724 5728 5732 5736 5740 5743 5747 5749 5752 5754 5757 5759 5761 5763 5765 5766 5767 5769 5770 5770 5771 5772
5694 5695 5695 5693 5692 5692 5692 5693 5693 5694 5694 5694 5695 5696 5697 5698 5700 5702 5704 5706 5709 5712 5716 5719 5722 5727 5731 5734 5737 5740 5743 5746 5748 5750 5752 5754 5756 5757 5759 5760 5761 5761 5762 5763
5688 5690 5688 5686 5686 5686 5687 5687 5687 5687 5688 5687 5688 5690 5692 5693 5694 5695 5697 5699 5702 5704 5708 5711 5713 5717 5721 5725 5728 5731 5734 5737 5739 5741 5743 5745 5746 5748 5749 5750 5751 5753 5754 5754
5682 5683 5681 5681 5681 5681 5681 5682 5681 5681 5681 5682 5683 5683 5687 5687 5688 5689 5690 5692 5694 5697 5700 5703 5705 5709 5712 5716 5719 5722 5725 5727 5730 5732 5734 5735 5737 5738 5740 5741 5742 5743 5744 5745
5676 5676 5675 5675 5675 5675 5676 5676 5675 5675 5674 5676 5677 5676 5681 5681 5682 5683 5684 5686 5687 5689 5691 5694 5697 5700 5703 5706 5709 5713 5716 5718 5720 5722 5724 5725 5727 5729 5730 5731 5732 5733 5734 5735
5670 5669 5669 5669 5669 5669 5670 5670 5670 5669 5669 5670 5673 5671 5673 5674 5675 5676 5677 5679 5680 5682 5683 5685 5689 5691 5694 5697 5700 5703 5706 5708 5711 5713 5714 5716 5718 5719 5720 5721 5722 5723 5724 5724
5664 5664 5663 5663 5664 5664 5664 5665 5665 5663 5663 5665 5667 5665 5667 5669 5669 5670 5671 5672 5673 5675 5676 5678 5680 5683 5685 5687 5690 5693 5696 5698 5701 5703 5704 5706 5707 5709 5709 5711 5712 5712 5713 5714
5657 5658 5658 5658 5659 5659 5659 5659 5660 5659 5659 5660 5660 5660 5663 5663 5663 5663 5664 5665 5666 5667 5668 5670 5672 5673 5675 5677 5680 5682 5685 5687 5690 5692 5694 5695 5697 5698 5698 5699 5700 5701 5702 5703
5652 5652 5653 5653 5653 5654 5653 5654 5655 5655 5654 5654 5654 5655 5657 5657 5657 5657 5657 5658 5659 5660 5661 5662 5663 5664 5665 5667 5669 5671 5674 5676 5678 5681 5683 5684 5686 5686 5687 5688 5688 5689 5690 5690
5646 5647 5647 5648 5648 5648 5649 5649 5650 5649 5648 5648 5649 5649 5651 5651 5651 5650 5650 5651 5652 5653 5653 5654 5654 5655 5656 5657 5659 5660 5663 5665 5668 5670 5671 5673 5674 5675 5675 5676 5676 5676 5677 5677
5641 5642 5642 5642 5643 5644 5644 5645 5644 5644 5644 5643 5643 5647 5646 5645 5645 5644 5644 5644 5645 5645 5645 5646 5646 5646 5646 5647 5648 5650 5652 5654 5656 5658 5660 5661 5663 5663 5664 5663 5663 5663 5664 5664
5636 5636 5636 5637 5638 5638 5638 5639 5639 5640 5639 5638 5638 5642 5640 5639 5639 5639 5638 5638 5638 5638 5638 5638 5637 5637 5637 5638 5638 5640 5641 5643 5645 5646 5648 5649 5650 5651 5652 5651 5651 5650 5650 5650
5630 5631 5631 5632 5634 5633 5633 5633 5634 5634 5634 5633 5633 5637 5634 5634 5633 5633 5632 5632 5632 5632 5631 5630 5630 5629 5629 5629 5630 5631 5632 5633 5634 5635 5636 5637 5638 5639 5639 5638 5638 5637 5637 5636
5624 5624 5626 5626 5626 5626 5627 5627 5628 5628 5627 5628 5628 5629 5629 5628 5627 5627 5626 5626 5626 5625 5625 5624 5623 5623 5622 5622 5622 5623 5623 5624 5624 5625 5626 5626 5626 5626 5626 5626 5625 5625 5624 5623
5617 5618 5618 5619 5620 5620 5620 5621 5622 5622 5622 5622 5624 5623 5623 5622 5621 5620 5620 5619 5619 5619 5618 5617 5616 5615 5615 5614 5614 5615 5615 5615 5615 5615 5615 5615 5614 5614 5613 5613 5612 5612 5611 5610
5610 5611 5612 5613 5613 5613 5614 5615 5615 5616 5616 5617 5617 5618 5618 5616 5615 5614 5613 5612 5612 5611 5611 5610 5609 5608 5608 5607 5607 5607 5606 5606 5606 5605 5605 5604 5603 5602 5601 5601 5600 5599 5599 5598
5603 5604 5605 5606 5607 5606 5607 5610 5610 5610 5611 5611 5610 5612 5611 5611 5610 5609 5607 5606 5605 5604 5603 5603 5602 5601 5601 5600 5599 5599 5598 5597 5596 5595 5595 5594 5592 5591 5590 5589 5588 5587 5586 5585
5597 5597 5598 5598 5600 5599 5605 5604 5604 5604 5604 5604 5604 5605 5605 5604 5603 5603 5602 5600 5599 5598 5597 5596 5595 5594 5593 5592 5592 5590 5590 5588 5587 5586 5584 5583 5581 5580 5579 5577 5576 5575 5573 5573
5591 5591 5591 5591 5591 5592 5596 5597 5597 5597 5598 5598 5598 5598 5598 5597 5597 5596 5595 5593 5592 5591 5589 5588 5587 5586 5585 5584 5583 5582 5581 5579 5578 5576 5574 5572 5571 5569 5567 5566 5564 5562 5561 5561
5584 5585 5585 5585 5585 5586 5591 5591 5590 5591 5591 5592 5592 5592 5591 5591 5591 5591 5588 5586 5585 5583 5581 5580 5579 5577 5576 5575 5574 5573 5571 5570 5568 5566 5565 5562 5560 5558 5556 5554 5553 5551 5550 5549
5578 5578 5579 5579 5579 5580 5584 5584 5584 5585 5586 5586 5585 5585 5584 5584 5584 5583 5581 5579 5577 5576 5574 5572 5570 5569 5567 5566 5565 5563 5562 5560 5558 5556 5554 5552 5550 5548 5546 5543 5541 5539 5538 5537
5572 5572 5573 5573 5573 5577 5577 5577 5577 5578 5578 5577 5577 5577 5577 5577 5576 5574 5573 5572 5570 5568 5566 5564 5562 5560 5558 5557 5555 5554 5552 5550 5548 5546 5544 5542 5540 5538 5536 5533 5531 5528 5527 5525
5566 5567 5567 5568 5570 5570 5569 5569 5569 5570 5570 5570 5570 5570 5569 5569 5568 5567 5565 5564 5562 5560 5558 5556 5554 5552 5550 5548 5546 5544 5542 5540 5538 5537 5535 5533 5530 5528 5526 5523 5521 5518 5516 5515
5560 5561 5561 5562 5563 5563 5562 5562 5562 5562 5562 5562 5562 5562 5561 5560 5559 5558 5557 5555 5554 5551 5549 5547 5545 5543 5541 5539 5537 5535 5533 5531 5530 5528 5526 5524 5521 5519 5516 5513 5511 5509 5507 5505
5555 5555 5555 5555 5557 5556 5556 5555 5555 5555 5554 5554 5553 5553 5552 5552 5551 5550 5548 5547 5545 5543 5541 5538 5536 5534 5532 5530 5528 5526 5524 5522 5521 5519 5517 5515 5513 5510 5508 5505 5502 5500 5498 5496
5549 5549 5549 5549 5550 5549 5549 5549 5548 5547 5547 5546 5545 5545 5544 5543 5542 5541 5540 5538 5536 5535 5532 5530 5528 5526 5524 5522 5520 5518 5516 5514 5512 5511 5509 5506 5504 5502 5499 5497 5495 5491 5489 5488